Вернуться в каталог

STARLINK-34296

АктивенСвязьVLEO
NORAD 64216·PAYLOAD·🇺🇸 United States

Запущен May 31, 2025 с Vandenberg Space Force Base

Loading…

Ближайшие Пролёты (ближайшие 24 часа)

TLE

СвежийSource: CelesTrak SupGP

Эпоха: Sep 15, 2026, 02:18 UTC

1 64216C 25117P   26258.09631944 -.00030709  00000+0 -90752-3 0  2588
2 64216  53.1587 238.8799 0001536  96.3144  61.4342 15.34398420    18

Отслеживайте STARLINK-34296 в реальном времени с AllMySat

Download on the App Store